| time (UTC) | temp F | wind direction | speed MPH | gust MPH | rain 1hr in | rain 24hr in | rain mn in | humidity % | barometer mb |
| 20260504204507 | 71 | 360 | 1.0 | 7.0 | 0.00 | 0.00 | 0.00 | 31 | 1003.6 |
| 20260504203004 | 71 | 30 | 0.0 | 6.0 | 0.00 | 0.00 | 0.00 | 30 | 1003.5 |
| 20260504201504 | 71 | 264 | 1.0 | 7.0 | 0.00 | 0.00 | 0.00 | 28 | 1003.6 |
| 20260504200005 | 70 | 317 | 1.0 | 5.0 | 0.00 | 0.00 | 0.00 | 29 | 1003.7 |
| 20260504194502 | 71 | 9 | 1.0 | 5.0 | 0.00 | 0.00 | 0.00 | 30 | 1004.0 |
| 20260504193002 | 71 | 292 | 1.0 | 9.0 | 0.00 | 0.00 | 0.00 | 30 | 1004.1 |
| 20260504191559 | 70 | 290 | 2.0 | 6.0 | 0.00 | 0.00 | 0.00 | 29 | 1004.1 |
| 20260504190108 | 70 | 106 | 2.0 | 9.0 | 0.00 | 0.00 | 0.00 | 32 | 1004.6 |
| 20260504184558 | 70 | 128 | 1.0 | 8.0 | 0.00 | 0.00 | 0.00 | 32 | 1004.6 |
| 20260504183102 | 70 | 284 | 1.0 | 9.0 | 0.00 | 0.00 | 0.00 | 32 | 1004.6 |
| 20260504181556 | 69 | 210 | 1.0 | 6.0 | 0.00 | 0.00 | 0.00 | 34 | 1005.0 |
| 20260504180136 | 69 | 338 | 1.0 | 6.0 | 0.00 | 0.00 | 0.00 | 36 | 1005.1 |
| 20260504174553 | 68 | 194 | 2.0 | 8.0 | 0.00 | 0.00 | 0.00 | 37 | 1005.4 |
| 20260504173052 | 67 | 258 | 1.0 | 6.0 | 0.00 | 0.00 | 0.00 | 32 | 1005.4 |
| 20260504171553 | 68 | 20 | 0.0 | 7.0 | 0.00 | 0.00 | 0.00 | 32 | 1005.7 |
| 20260504100117 | 46 | 286 | 0.0 | 2.0 | 0.00 | 0.00 | 0.00 | 53 | 1008.2 |
| 20260504081552 | 49 | 219 | 0.0 | 3.0 | 0.00 | 0.00 | 0.00 | 48 | 1007.8 |
| 20260504044544 | 49 | 344 | 0.0 | 2.0 | 0.00 | 0.00 | 0.00 | 47 | 1007.3 |
| 20260504043054 | 48 | 344 | 0.0 | 1.0 | 0.00 | 0.00 | 0.00 | 47 | 1007.2 |
| 20260504041541 | 48 | 344 | 0.0 | 2.0 | 0.00 | 0.00 | 0.00 | 49 | 1006.9 |
| 20260504040041 | 48 | 346 | 0.0 | 2.0 | 0.00 | 0.00 | 0.00 | 48 | 1006.9 |
| 20260504034547 | 48 | 346 | 0.0 | 1.0 | 0.00 | 0.00 | 0.00 | 49 | 1006.8 |
| 20260504033041 | 48 | 346 | 0.0 | 2.0 | 0.00 | 0.00 | 0.00 | 50 | 1006.8 |
| 20260504031540 | 48 | 346 | 0.0 | 1.0 | 0.00 | 0.00 | 0.00 | 49 | 1006.8 |
| 20260504030046 | 47 | 346 | 0.0 | 1.0 | 0.00 | 0.00 | 0.00 | 49 | 1006.8 |
| 20260504024539 | 47 | 346 | 0.0 | 1.0 | 0.00 | 0.00 | 0.00 | 51 | 1006.8 |
| 20260504023039 | 46 | 333 | 0.0 | 1.0 | 0.00 | 0.00 | 0.00 | 54 | 1006.8 |
| 20260504021538 | 46 | 333 | 0.0 | 1.0 | 0.00 | 0.00 | 0.00 | 54 | 1006.8 |
| 20260504020048 | 46 | 333 | 0.0 | 1.0 | 0.00 | 0.00 | 0.00 | 53 | 1006.8 |
| 20260504014547 | 47 | 333 | 0.0 | 1.0 | 0.00 | 0.00 | 0.00 | 50 | 1006.8 |
| 20260504013038 | 47 | 333 | 0.0 | 1.0 | 0.00 | 0.00 | 0.00 | 50 | 1006.6 |
| 20260504011537 | 47 | 333 | 0.0 | 1.0 | 0.00 | 0.00 | 0.00 | 48 | 1006.3 |
| 20260504010036 | 48 | 333 | 0.0 | 0.0 | 0.00 | 0.00 | 0.00 | 49 | 1006.3 |
| 20260504004536 | 49 | 333 | 0.0 | 0.0 | 0.00 | 0.00 | 0.00 | 46 | 1006.2 |
| 20260504003036 | 50 | 333 | 0.0 | 0.0 | 0.00 | 0.00 | 0.00 | 44 | 1005.9 |
| 20260504001539 | 52 | 333 | 0.0 | 0.0 | 0.00 | 0.00 | 0.00 | 42 | 1005.7 |
| 20260504000038 | 54 | 333 | 0.0 | 0.0 | 0.00 | 0.00 | 0.00 | 35 | 1005.5 |
| 20260503234535 | 55 | 333 | 0.0 | 1.0 | 0.00 | 0.00 | 0.00 | 33 | 1005.2 |
| 20260503233035 | 57 | 333 | 0.0 | 3.0 | 0.00 | 0.00 | 0.00 | 31 | 1005.1 |
| 20260503231535 | 57 | 218 | 0.0 | 2.0 | 0.00 | 0.00 | 0.00 | 29 | 1005.0 |
| 20260503230034 | 57 | 303 | 0.0 | 3.0 | 0.00 | 0.00 | 0.00 | 27 | 1004.8 |
| 20260503224534 | 57 | 219 | 1.0 | 3.0 | 0.00 | 0.00 | 0.00 | 27 | 1004.7 |
| 20260503223034 | 58 | 349 | 2.0 | 9.0 | 0.00 | 0.00 | 0.00 | 27 | 1004.7 |
| 20260503221535 | 58 | 315 | 2.0 | 7.0 | 0.00 | 0.00 | 0.00 | 25 | 1004.7 |
| 20260503220035 | 58 | 323 | 1.0 | 7.0 | 0.00 | 0.00 | 0.00 | 27 | 1004.8 |
| 20260503214540 | 58 | 186 | 1.0 | 4.0 | 0.00 | 0.00 | 0.00 | 25 | 1004.8 |
| 20260503213036 | 58 | 326 | 4.0 | 10.0 | 0.00 | 0.00 | 0.00 | 28 | 1004.7 |
| 20260503211538 | 58 | 321 | 5.0 | 13.0 | 0.00 | 0.00 | 0.00 | 24 | 1004.7 |
| 20260503210033 | 58 | 311 | 4.0 | 12.0 | 0.00 | 0.00 | 0.00 | 24 | 1004.7 |